Overview Statistics Trail Chart Weather Telemetry Raw packets
 

This is the latest recevied weather packets stored in our database for station/object N1ORT. If no packets are shown the sender has not sent any weather packets the latest 10 day(s).

<< 5 6 7 8 9 10 11 >>
Time Temp. Humidity Pressure Rain* Wind** Luminosity Snow
1788584752 18.89° C 84% 1007.7 hPa 0 mm - 0 W/m² -
1788584449 18.89° C 84% 1007.6 hPa 0 mm - 0 W/m² -
1788584143 18.89° C 86% 1007.7 hPa 0 mm - 0 W/m² -
1788583838 18.89° C 83% 1007.4 hPa 0 mm - 0 W/m² -
1788583533 18.89° C 83% 1007.3 hPa 0 mm - 0 W/m² -
1788583233 18.89° C 83% 1007.5 hPa 0 mm - 0 W/m² -
1788582932 18.89° C 83% 1007.7 hPa 0 mm - 0 W/m² -
1788582627 18.89° C 85% 1007.8 hPa 0 mm - 0 W/m² -
1788582321 18.89° C 85% 1007.9 hPa 0 mm - 0 W/m² -
1788582016 18.33° C 87% 1007.9 hPa 0 mm - 0 W/m² -
1788581712 18.33° C 87% 1007.6 hPa 0 mm - 0 W/m² -
1788581407 18.33° C 87% 1007.6 hPa 0 mm - 0 W/m² -
1788581106 17.78° C 88% 1007.3 hPa 0 mm - 0 W/m² -
1788580805 17.78° C 91% 1007.4 hPa 0 mm - 0 W/m² -
1788580501 17.78° C 91% 1007.3 hPa 0 mm - 0 W/m² -
1788580198 18.33° C 91% 1007.5 hPa 0 mm - 0 W/m² -
1788579907 18.33° C 89% 1007.6 hPa 0 mm - 0 W/m² -
1788579597 18.33° C 88% 1007.6 hPa 0 mm - 0 W/m² -
1788579292 18.33° C 87% 1007.8 hPa 0 mm - 0 W/m² -
1788578987 18.33° C 87% 1007.8 hPa 0 mm - 0 W/m² -
1788578682 18.33° C 87% 1007.8 hPa 0 mm - 0 W/m² -
1788578377 18.89° C 89% 1007.8 hPa 0 mm - 0 W/m² -
1788578073 18.89° C 88% 1007.8 hPa 0 mm - 0 W/m² -
1788577768 18.89° C 87% 1007.8 hPa 0 mm - 0 W/m² -
1788577463 18.89° C 87% 1008.2 hPa 0 mm - 0 W/m² -

* Rain latest hour (hover to see other rain measurements)
** Current wind speed in m/s (hover to see current wind gust speed)